Home   Weather   Taichung   Past weeks

Flag for Taiwan Past Weather in Taichung, Taiwan — Yesterday and Last 2 Weeks

Now
70 °F

Partly sunny.


Feels Like: 70 °F
Forecast: 62 / 79 °F
Wind: 17 mph from Northeast

Location: Chiang Kai Shek

Current Time: Dec 11, 2016 at 4:19:52 pm

Latest Report: Dec 11, 2016 at 4:00 pm


Visibility: N/A

Pressure: 30.01 "Hg

Humidity: 78%

Dew Point: 63 °F

Location of TaichungLocation

Past Weather in Taichung — Graph

°F

Taichung Temperature Yesterday

Maximum temperature yesterday: 75 °F (at 12:30 pm)
Minimum temperature yesterday: 66 °F (at 8:30 pm)
Average temperature yesterday: 70 °F

High & Low Weather Summary for the Past Weeks

 TemperatureHumidityPressure
High77 °F (Nov 30, 10:30 am)100% (Nov 26, 9:30 pm)30.27 "Hg (Nov 26, 9:30 pm)
Low64 °F (Nov 27, 12:00 am)53% (Nov 28, 9:00 pm)29.92 "Hg (Dec 8, 1:30 pm)
Average69 °F79%30.11 "Hg
* Reported Nov 26 3:00 pm — Dec 11 3:02 pm, Taichung, Weather by CustomWeather, © 2016

Note: Actual official high and low records may vary slightly from our data, if they occured in-between our weather recording intervals... More about our weather records

Advertising

Taichung Weather History for the Previous 24 Hours

Scroll right to see more
 ConditionsComfort  
Time TempWeatherWind HumidityBarometerVisibility
3:02 pm
Sun, Dec 11
70 °FPartly sunny.20 mph78%30.01 "HgN/A
2:30 pm70 °FPartly sunny.17 mph78%30.01 "HgN/A
2:00 pm70 °FPartly sunny.20 mph78%30.01 "HgN/A
1:30 pm70 °FPartly sunny.20 mph78%30.01 "HgN/A
1:00 pm70 °FPartly sunny.22 mph78%30.04 "HgN/A
12:30 pm70 °FPartly sunny.21 mph78%30.04 "HgN/A
12:00 pm70 °FPartly sunny.25 mph78%30.07 "HgN/A
11:30 am70 °FPartly sunny.23 mph78%30.09 "HgN/A
11:00 am70 °FBroken clouds.22 mph78%30.09 "HgN/A
10:30 am70 °FBroken clouds.20 mph78%30.09 "HgN/A
10:00 am68 °FPartly sunny.17 mph83%30.12 "HgN/A
9:30 am68 °FPartly sunny.16 mph78%30.12 "HgN/A
9:00 am68 °FPartly sunny.18 mph78%30.12 "HgN/A
8:30 am68 °FPartly sunny.18 mph78%30.12 "HgN/A
8:00 am68 °FPartly sunny.16 mph78%30.12 "HgN/A
7:30 am68 °FPartly sunny.14 mph78%30.09 "HgN/A
7:00 am68 °FPartly sunny.17 mph78%30.09 "HgN/A
6:30 am68 °FPartly sunny.16 mph78%30.09 "HgN/A
6:00 am68 °FPassing clouds.20 mph78%30.09 "HgN/A
5:30 am66 °FPassing clouds.20 mph83%30.07 "HgN/A
5:00 am66 °FPassing clouds.18 mph83%30.07 "HgN/A
4:30 am66 °FPassing clouds.20 mph88%30.07 "HgN/A
4:00 am66 °FPassing clouds.22 mph88%30.07 "Hg6 mi
3:30 am66 °FPassing clouds.25 mph88%30.07 "Hg6 mi
3:00 am66 °FLight rain. Passing clouds.22 mph88%30.07 "Hg6 mi
2:30 am66 °FLight rain. Passing clouds.23 mph88%30.07 "Hg4 mi
2:00 am66 °FLight rain. Passing clouds.22 mph88%30.07 "Hg4 mi
1:30 am66 °FLight rain. Passing clouds.25 mph88%30.07 "Hg4 mi
1:00 am66 °FLight rain. Passing clouds.22 mph88%30.07 "Hg4 mi
12:30 am66 °FPassing clouds.25 mph88%30.07 "Hg4 mi
12:00 am66 °FPassing clouds.25 mph88%30.07 "Hg5 mi
11:30 pm
Sat, Dec 10
66 °FLight rain. Passing clouds.24 mph88%30.07 "Hg4 mi
11:00 pm66 °FPassing clouds.25 mph88%30.07 "Hg5 mi
10:30 pm68 °FPassing clouds.26 mph83%30.07 "Hg6 mi
10:00 pm66 °FLight rain. Passing clouds.23 mph88%30.07 "Hg4 mi
9:56 pm66 °FLight rain. Passing clouds.23 mph88%30.07 "Hg4 mi
9:30 pm66 °FLight rain. Passing clouds.25 mph88%30.07 "Hg4 mi
9:00 pm66 °FLight rain. Passing clouds.28 mph94%30.07 "Hg4 mi
8:30 pm66 °FLight rain. Passing clouds.22 mph88%30.07 "Hg5 mi
8:00 pm68 °FLight rain. Passing clouds.24 mph83%30.07 "Hg4 mi
7:45 pm70 °FLight rain. Passing clouds.25 mph78%30.07 "Hg5 mi
7:30 pm70 °FScattered showers. Passing clouds.23 mph78%30.04 "HgN/A
7:00 pm70 °FPassing clouds.22 mph78%30.04 "HgN/A
6:30 pm70 °FPassing clouds.20 mph78%30.04 "HgN/A
6:00 pm70 °FPassing clouds.24 mph78%30.01 "HgN/A
5:30 pm70 °FPassing clouds.25 mph78%30.01 "HgN/A
5:00 pm70 °FPartly sunny.25 mph78%30.01 "HgN/A
4:30 pm70 °FPartly sunny.24 mph78%29.98 "HgN/A
4:00 pm70 °FPartly sunny.23 mph78%29.98 "HgN/A
Weather by CustomWeather, © 2016

See weather overviewHow to use our weather pages